User: anonymous   Login
Location: Bothwell
(42.3833°S, 147.0000°E)
Time: 00:05:33
(UTC+10:00)
Language:

METEOR M2 - Orbit

View from above orbital plane
View from above orbital plane
View from above satellite
View from above satellite

Ground track
Ground track

The orbit data is extracted from the following two-line orbital elements,

1 40069U 14037A   22274.17521832  .00000006  00000-0  22142-4 0  9991
2 40069  98.4305 287.1514 0006203  26.2001 333.9490 14.20719629426879
Epoch (UTC): 01 October 2022 04:12:18
Eccentricity: 0.0006203
inclination: 98.4305°
perigee height: 818 km
apogee height: 827 km
right ascension of ascending node: 287.1514°
argument of perigee: 26.2001°
revolutions per day: 14.20719629
mean anomaly at epoch: 333.9490°
orbit number at epoch: 42687

The dashed part of the orbit path shows where the satellite is in the earth's shadow,  

DLR